EHI
0 1 3 1 0 0 0 0 0 0 0 0 0 0 0 0 0 0 0 0 0 0 0 0 0 0 0 0 0 0 0 0 0 0 0 0 0 0 0 0 0 0 0
0 1 3 1 0 0 0 0 0 0 0 0 0 0 0 0 0 0 0 0 0 0 0 0 0 0 0 0 0 0 0 0 0 0 0 0 0 0 0 0 0 0 0
0 1 1 1 0 0 0 0 0 0 0 0 0 0 0 0 0 0 0 0 0 0 0 0 0 0 0 0 0 0 0 0 0 0 0 0 0 0 0 0 0 0 0
0 0 0 0 0 0 0 0 0 0 0 0 0 0 0 0 0 0 0 0 0 0 0 0 0 0 0 0 0 0 0 0 0 0 0 0 0 0 0 0 0 0 0
0 0 0 0 0 0 0 0 0 0 0 0 0 0 0 0 0 0 0 0 0 0 0 0 0 0 0 0 0 0 0 0 0 0 0 0 0 0 0 0 0 0 0
0 0 0 0 0 0 0 0 0 0 0 0 0 0 0 0 0 0 0 0 0 0 0 0 0 0 0 0 0 0 0 0 0 0 0 0 0 0 0 0 0 0 0
1 0 2 3 2 0 0 0 0 0 0 0 0 0 0 0 0 0 0 0 0 0 0 0 0 0 0 0 0 0 0 0 0 0 0 0 0 0 0 0 0 0 0
4 2 3 5 3 1 1 0 0 0 0 0 0 0 0 0 0 0 0 0 0 0 0 0 0 0 0 0 0 0 0 0 0 0 0 0 0 0 0 0 0 0 0
7 6 4 3 3 3 4 2 1 1 0 0 0 0 0 0 0 0 0 0 0 0 0 0 0 0 0 0 0 0 0 0 0 0 0 0 0 0 0 0 0 1 1
6 8 7 6 6 7 7 6 5 3 2 1 0 0 0 0 0 0 0 0 0 0 0 0 0 0 0 0 0 0 0 0 0 0 0 0 0 0 0 0 0 1 2
3 5 8 12 15 16 15 13 11 8 6 3 2 1 0 0 0 0 0 0 0 0 0 0 0 0 0 0 0 0 0 0 0 0 0 0 0 0 0 0 0 1 2
0 2 6 12 20 27 27 22 20 18 12 8 5 3 1 0 0 0 0 0 0 0 0 0 0 0 0 0 0 0 0 0 0 0 0 0 0 0 0 0 0 1 2
0 1 3 6 13 23 26 22 23 24 17 10 6 4 2 1 0 0 0 0 0 0 0 0 0 0 0 0 0 0 0 0 0 0 0 0 0 0 0 0 0 1 2
0 0 1 1 4 9 12 11 14 17 12 7 4 5 7 6 3 0 0 0 0 0 0 0 0 0 0 0 0 0 0 0 0 0 0 0 0 0 0 0 0 0 1
0 0 0 0 0 1 1 2 3 5 4 3 2 5 12 16 12 4 0 0 0 0 0 0 1 1 0 0 0 0 0 0 0 0 0 0 0 0 0 0 0 0 0
1 0 0 0 0 0 0 0 0 0 1 1 1 2 10 19 18 7 1 0 0 0 0 1 2 2 1 0 0 0 0 0 0 0 0 0 0 0 0 0 0 0 0
10 8 5 5 5 4 2 1 0 0 1 1 0 0 4 10 11 5 1 0 1 2 4 5 6 5 3 1 1 1 1 1 1 0 0 0 0 0 0 0 0 0 0
38 32 24 21 18 13 9 6 3 2 1 0 0 1 2 3 4 3 1 0 2 5 7 9 11 9 4 2 3 2 1 1 1 0 0 0 0 0 0 0 0 0 0
66 57 45 36 27 19 13 9 5 3 2 0 1 2 3 3 4 3 2 1 2 5 8 9 11 9 4 2 3 3 2 1 1 0 0 0 0 0 0 0 0 0 0
65 57 43 29 20 13 9 6 3 2 1 0 1 2 3 3 2 2 1 1 3 5 7 8 9 7 4 2 2 3 2 1 1 1 0 0 0 0 0 0 0 0 0
38 32 22 12 6 4 2 1 0 0 0 0 0 1 1 1 0 1 1 3 5 7 6 7 9 10 8 4 3 3 2 1 2 2 2 0 0 0 0 0 0 0 0
12 10 6 3 2 2 1 1 0 0 0 0 0 0 0 0 0 0 1 3 5 5 4 5 9 13 12 7 5 3 1 1 1 2 2 1 0 0 0 0 0 1 1
2 2 2 2 3 3 2 1 0 0 0 0 0 0 0 0 0 0 1 1 1 2 3 3 6 10 12 9 6 3 1 0 0 0 1 0 0 0 0 0 0 0 0
0 0 1 1 1 2 1 1 0 0 0 0 0 0 0 0 0 0 0 0 0 1 1 1 2 5 9 9 7 5 2 0 0 0 0 0 0 0 0 0 0 0 0
0 0 0 0 0 0 0 0 0 0 0 0 0 0 0 0 0 0 0 0 0 0 0 0 0 2 4 5 5 3 2 1 0 0 0 0 0 0 0 0 0 0 0
0 0 0 0 0 0 0 0 0 0 0 0 0 0 0 0 0 0 0 0 0 0 0 0 0 0 1 2 2 1 1 1 1 0 0 0 0 0 0 0 0 0 0
Wind_Speed
7 10 18 18 17 16 15 15 15 15 15 15 14 14 13 13 12 11 10 9 9 8 8 8 8 8 8 8 8 9 10 10 10 10 11 11 11 10 10 10 10 8 11
12 12 19 18 18 17 16 15 15 15 14 14 13 13 12 12 11 10 9 8 8 8 8 7 7 7 7 7 7 8 8 8 8 8 9 9 9 9 10 10 10 7 11
13 12 15 17 17 17 16 15 15 15 14 14 13 12 12 11 10 10 9 8 7 7 7 7 6 6 6 6 6 6 7 6 6 7 6 3 4 7 9 10 10 11 11
12 10 11 17 17 16 16 16 16 15 15 14 13 12 11 10 9 9 8 7 6 6 6 6 6 6 5 5 5 5 5 6 5 6 3 3 3 5 7 10 10 11 11
10 9 12 19 17 17 16 16 15 15 14 13 12 11 10 9 8 8 7 6 6 5 5 5 5 5 5 5 5 5 5 5 5 4 3 3 2 4 7 9 10 10 11
10 9 12 19 17 16 16 15 14 13 13 12 11 10 9 8 8 7 7 6 6 6 5 5 5 5 5 6 6 6 6 6 5 3 3 3 3 6 9 11 11 11 11
11 9 10 19 17 16 15 14 13 13 11 10 10 9 8 7 7 7 7 7 7 7 7 7 7 7 7 7 7 7 7 7 5 3 4 4 5 7 11 14 14 13 13
11 9 9 18 17 16 14 13 13 12 11 10 9 9 8 7 7 7 8 8 8 8 8 8 9 9 9 9 9 8 8 8 6 4 4 5 8 9 10 15 16 16 15
9 7 6 8 11 14 14 13 12 11 11 10 10 9 8 8 8 8 9 9 10 10 10 11 11 11 10 10 10 10 10 10 7 5 6 5 8 11 11 13 15 16 16
8 7 5 5 5 6 7 12 12 11 11 10 10 9 9 9 9 10 9 10 11 12 12 13 13 12 11 10 11 11 12 10 7 7 5 6 11 13 13 14 14 16 17
9 7 6 6 5 5 5 8 10 11 11 10 9 11 10 5 5 6 8 11 12 13 14 14 14 14 12 11 13 13 12 5 7 7 6 10 13 14 15 15 14 16 18
12 11 8 7 6 6 7 5 4 4 5 5 4 5 4 3 4 7 8 13 14 15 15 16 16 15 11 6 10 12 6 8 8 7 8 14 15 15 16 16 15 16 17
11 11 10 9 7 6 5 4 3 3 3 5 6 6 4 4 4 5 4 7 8 10 8 10 10 7 7 6 6 7 8 8 6 7 9 14 15 16 16 16 15 15 17
9 11 10 10 9 7 5 4 3 3 3 4 5 6 4 4 4 5 5 6 5 5 6 7 6 8 9 9 9 9 10 7 7 6 8 15 15 16 16 15 15 14 15
9 10 9 9 10 8 6 5 5 5 5 6 5 5 6 6 6 7 6 6 7 6 7 7 7 8 8 9 9 9 10 10 9 8 6 14 16 16 16 16 15 15 15
9 9 8 9 9 7 7 6 5 5 5 5 5 7 8 7 7 7 7 7 7 7 7 8 8 7 7 7 8 9 9 9 8 9 8 10 15 15 16 17 17 16 15
8 7 7 8 6 7 7 6 5 4 4 5 6 7 8 8 9 8 7 8 7 7 8 7 8 7 7 7 8 9 7 8 8 9 9 7 8 12 15 17 17 17 17
6 6 7 7 7 8 7 7 5 5 5 5 5 6 8 9 9 8 8 8 8 7 6 7 7 6 7 7 7 6 6 7 9 9 8 8 7 8 11 15 17 17 17
7 6 6 7 8 9 9 7 6 4 5 4 4 4 5 6 7 6 6 7 6 6 6 7 6 6 7 7 7 6 7 7 8 9 9 10 9 9 8 10 15 16 18
7 7 7 7 8 6 4 3 2 3 4 3 3 4 5 4 5 5 5 6 6 5 6 6 7 7 6 6 7 7 7 7 7 8 10 8 8 10 10 10 9 10 16
7 7 8 7 6 4 2 2 2 3 3 3 3 4 4 4 5 5 5 5 5 5 7 7 6 7 6 4 4 5 6 8 9 8 7 7 9 9 9 9 8 7 7
8 8 7 6 5 4 2 2 2 1 1 2 3 4 5 5 5 5 5 5 6 6 7 7 6 4 4 4 4 3 3 3 5 7 6 6 7 5 6 8 7 8 8
7 8 6 5 4 4 3 1 1 1 2 2 2 3 4 5 6 6 7 7 7 6 7 7 7 8 6 5 6 5 4 5 2 2 4 4 4 4 4 5 6 6 6
8 5 3 3 3 3 3 3 3 2 2 3 2 4 6 6 7 7 7 7 7 7 8 8 7 7 7 6 5 6 6 4 4 3 2 3 3 4 4 4 4 4 4
4 3 2 2 2 2 3 4 3 3 3 3 3 5 6 6 7 8 8 7 8 7 8 8 8 8 7 7 6 5 6 6 6 5 4 2 2 2 2 3 3 2 2
3 2 3 4 3 3 4 5 5 5 4 4 4 5 5 5 6 7 8 7 7 7 8 8 8 9 8 8 7 6 5 4 5 5 6 3 2 0 1 2 1 1 1
Wind_Direction
159 160 162 159 155 150 144 139 136 133 132 131 130 129 127 126 126 127 127 125 120 115 110 109 109 111 112 112 111 109 113 118 120 123 126 127 129 130 127 125 125 125 127
153 160 164 161 157 153 149 145 142 139 137 136 134 132 130 130 130 130 130 132 131 126 121 119 118 119 120 120 119 118 120 124 129 135 137 134 134 138 140 135 136 136 134
149 159 164 162 159 158 155 151 148 147 145 143 140 137 136 136 137 138 139 141 142 139 135 133 131 129 130 132 132 132 133 135 142 150 142 123 139 154 164 153 152 146 143
149 154 160 163 162 162 161 159 157 155 153 151 148 146 144 145 147 149 151 153 156 154 152 152 152 151 152 153 154 155 155 156 162 160 145 171 182 161 167 166 165 160 154
147 151 164 166 167 168 168 167 165 163 160 158 156 156 157 159 161 164 166 171 176 178 178 179 178 178 181 186 189 192 194 192 194 184 176 192 211 191 180 180 181 178 170
152 154 169 169 172 173 174 173 171 169 167 165 165 167 172 177 181 184 187 193 200 206 210 212 214 213 215 218 220 222 225 227 224 216 224 228 222 229 217 202 198 195 188
156 157 173 172 175 177 179 180 178 176 175 176 177 181 188 196 202 206 208 212 217 222 228 234 236 239 240 242 244 246 248 250 242 227 242 254 254 256 241 218 208 206 201
157 157 171 175 178 180 183 186 185 183 183 186 190 196 204 213 222 228 230 232 235 238 242 247 250 252 254 255 256 258 260 262 266 250 245 250 258 266 258 228 213 211 209
152 153 167 174 180 184 188 192 194 193 193 196 200 206 214 223 232 241 245 248 252 254 256 259 261 264 264 261 262 264 266 266 264 253 258 250 256 265 270 252 225 216 216
154 155 158 163 171 179 190 200 203 204 205 208 213 219 226 234 240 247 249 252 260 264 266 267 268 270 270 267 267 268 270 274 270 263 257 255 258 261 264 265 245 225 220
169 169 166 165 167 171 182 204 207 212 215 218 223 230 233 235 245 258 260 258 261 266 269 271 271 271 269 268 268 269 271 259 262 265 262 261 262 263 263 263 256 238 226
183 186 184 181 176 174 191 197 199 204 210 213 213 228 234 229 234 247 253 259 262 265 268 268 267 266 265 256 259 264 258 254 256 260 261 263 264 264 264 261 257 249 236
186 190 194 194 187 185 192 188 196 199 204 211 213 216 224 236 244 251 250 260 262 266 267 267 267 258 248 243 243 245 249 252 252 255 257 261 260 260 262 262 259 255 247
184 198 197 197 196 197 198 199 202 208 215 221 222 218 218 231 241 243 246 248 248 251 252 252 251 249 248 245 243 245 248 247 249 249 253 260 260 261 263 263 263 262 257
192 200 199 197 203 202 203 211 214 220 226 231 231 225 219 227 239 242 245 245 245 245 249 252 251 252 251 248 244 243 246 246 247 247 254 260 264 265 266 266 263 263 261
199 201 197 199 203 202 210 218 225 227 232 236 238 237 229 230 236 240 243 243 242 241 243 245 247 250 254 251 250 246 245 245 245 246 249 258 262 264 265 266 265 261 256
200 198 198 199 194 202 217 226 232 235 234 237 242 244 242 238 240 241 244 247 245 242 243 246 248 245 249 248 250 251 252 251 247 246 249 250 255 258 258 259 260 257 251
186 191 200 201 191 201 211 218 223 226 229 237 241 245 247 245 243 245 247 250 248 243 243 245 246 242 241 240 242 243 243 245 247 246 248 250 250 255 257 256 255 252 250
171 172 178 192 197 204 209 213 218 224 232 238 241 245 251 252 249 243 249 256 255 251 248 249 245 235 240 238 237 240 238 239 243 248 246 248 249 250 254 256 253 252 252
149 158 173 190 200 198 195 203 227 246 249 250 251 256 265 265 267 260 260 264 262 258 257 249 250 241 239 240 247 248 236 233 232 238 244 247 250 254 255 255 253 253 251
160 173 185 192 196 169 154 179 209 240 250 261 263 266 277 281 282 276 272 272 265 258 257 255 251 250 247 232 238 254 248 235 235 235 236 242 250 255 257 256 253 250 250
188 193 195 198 190 184 176 178 190 216 254 270 287 295 287 286 286 287 274 271 268 264 262 256 245 244 243 209 211 232 266 270 237 232 229 232 241 247 254 259 257 251 248
210 207 201 199 194 196 193 145 80 19 338 316 305 300 295 295 289 281 276 271 269 262 260 255 243 240 246 232 206 205 215 233 258 258 236 232 231 235 250 261 261 255 250
227 220 208 198 192 192 176 179 190 214 256 261 273 282 295 294 293 289 282 276 271 264 259 256 247 236 238 242 224 217 220 207 213 249 248 237 237 243 255 268 269 262 257
234 222 206 189 190 178 174 180 184 209 230 262 281 291 296 299 297 295 292 285 278 270 262 256 252 241 234 236 227 216 224 226 223 224 243 234 235 249 274 284 275 268 271
243 217 198 190 195 180 181 180 184 204 231 271 293 300 303 304 300 299 301 294 287 278 269 262 254 247 240 238 234 221 212 208 207 211 222 223 220 240 18 4 354 12 42